GW4137 Weather Reports


time (UTC)temp
C
wind
direction
speed
KPH
gust
KPH
rain 1hr
cm
rain 24hr
cm
rain mn
cm
humidity
%
barometer
mb
20260506184604 15 294 9.7 29.0 0.00 0.00 0.00 26 1011.5
20260506183056 14 257 14.5 27.4 0.00 0.00 0.00 26 1011.8
20260506181556 13 194 8.0 29.0 0.00 0.00 0.00 26 1012.1
20260506180057 12 179 8.0 22.5 0.00 0.00 0.00 26 1012.3
20260506174552 12 221 12.9 27.4 0.00 0.00 0.00 27 1012.7
20260506173104 12 155 8.0 25.7 0.00 0.00 0.00 29 1012.9
20260506171602 11 205 11.3 24.1 0.00 0.00 0.00 32 1013.2
20260506170103 10 183 12.9 20.9 0.00 0.00 0.00 35 1013.6
20260506164618 10 207 9.7 24.1 0.00 0.00 0.00 31 1013.7
20260506163107 10 213 12.9 22.5 0.00 0.00 0.00 37 1013.8
20260506161557 8 209 11.3 20.9 0.00 0.00 0.00 42 1014.0
20260506160111 8 180 12.9 19.3 0.00 0.00 0.00 44 1014.3
20260506154555 7 183 9.7 19.3 0.00 0.00 0.00 49 1014.6
20260506153101 6 182 9.7 17.7 0.00 0.00 0.00 52 1014.9
20260506151553 5 196 9.7 16.1 0.00 0.00 0.00 53 1015.1
20260506150053 5 205 6.4 12.9 0.00 0.00 0.00 56 1015.2
20260506144552 3 207 4.8 16.1 0.00 0.00 0.00 60 1015.2
20260506143056 3 352 6.4 16.1 0.00 0.00 0.00 60 1015.4
20260506141609 2 19 3.2 11.3 0.00 0.00 0.00 61 1015.6
20260506140055 1 0 1.6 6.4 0.00 0.00 0.00 62 1015.6
20260506134554 0 360 0.0 4.8 0.00 0.00 0.00 62 1015.7
20260506133105 0 0 0.0 0.0 0.00 0.00 0.00 62 1015.8
20260506131555 -2 0 0.0 0.0 0.00 0.00 0.00 64 1015.9
20260506130056 -4 0 0.0 0.0 0.00 0.00 0.00 66 1015.9
20260506124550 -5 0 0.0 1.6 0.00 0.00 0.00 68 1015.9
20260506123053 -6 0 0.0 0.0 0.00 0.00 0.00 70 1016.0
20260506121614 -7 360 1.6 6.4 0.00 0.00 0.00 69 1016.0
20260506120120 -7 360 4.8 6.4 0.00 0.00 0.00 69 1016.2
20260506114557 -7 360 4.8 6.4 0.00 0.00 0.00 69 1016.2
20260506113109 -7 0 0.0 3.2 0.00 0.00 0.00 68 1016.3
20260506111552 -7 0 0.0 6.4 0.00 0.00 0.00 68 1016.5
20260506110058 -7 360 0.0 3.2 0.00 0.00 0.00 69 1016.8
20260506104553 -7 0 0.0 4.8 0.00 0.00 0.00 67 1017.0
20260506103056 -6 360 4.8 8.0 0.00 0.00 0.00 66 1017.0
20260506101555 -7 360 3.2 6.4 0.00 0.00 0.00 67 1017.1
20260506100058 -6 360 4.8 6.4 0.00 0.00 0.00 66 1017.4
20260506094557 -6 360 3.2 6.4 0.00 0.00 0.00 66 1017.4
20260506093056 -6 360 1.6 6.4 0.00 0.00 0.00 66 1017.6
20260506091554 -6 360 3.2 4.8 0.00 0.00 0.00 66 1017.7
20260506090052 -6 360 0.0 3.2 0.00 0.00 0.00 66 1017.8
20260506084550 -5 0 0.0 0.0 0.00 0.00 0.00 65 1017.9
20260506083051 -5 0 0.0 4.8 0.00 0.00 0.00 64 1018.0
20260506081553 -5 0 0.0 0.0 0.00 0.00 0.00 64 1018.2
20260506073100 -4 0 0.0 4.8 0.00 0.00 0.00 61 1018.5
20260506071555 -3 0 0.0 4.8 0.00 0.00 0.00 59 1018.5
20260506070114 -2 16 3.2 6.4 0.00 0.00 0.00 59 1018.6
20260506061602 -2 16 3.2 4.8 0.00 0.00 0.00 56 1018.5
20260506044558 -1 16 4.8 6.4 0.00 0.00 0.00 50 1018.7
20260506043051 0 16 1.6 4.8 0.00 0.00 0.00 49 1018.7
20260506041556 -1 16 0.0 0.0 0.00 0.00 0.00 50 1018.8
20260506040059 0 0 0.0 0.0 0.00 0.00 0.00 48 1018.8
20260506034555 0 0 1.6 6.4 0.00 0.00 0.00 47 1018.9
20260506033052 1 16 1.6 4.8 0.00 0.00 0.00 44 1018.8
20260506031601 2 16 3.2 8.0 0.00 0.00 0.00 41 1018.7
20260506030105 3 16 6.4 12.9 0.00 0.00 0.00 40 1018.6
20260506024546 5 13 11.3 14.5 0.00 0.00 0.00 38 1018.5
20260506023055 6 5 9.7 20.9 0.00 0.00 0.00 37 1018.4
20260506021551 6 5 16.1 24.1 0.00 0.00 0.00 36 1018.4
20260506020050 7 5 16.1 27.4 0.00 0.00 0.00 35 1018.3
20260506014600 7 14 19.3 30.6 0.00 0.00 0.00 33 1018.3
20260506013051 7 352 20.9 29.0 0.00 0.00 0.00 33 1018.2
20260506011555 8 352 25.7 33.8 0.00 0.00 0.00 31 1018.1
20260506010059 8 352 25.7 35.4 0.00 0.00 0.00 30 1018.0
20260506004623 8 352 24.1 33.8 0.00 0.00 0.00 29 1018.0
20260506003053 8 351 24.1 38.6 0.00 0.00 0.00 30 1018.0
20260506001550 8 24 20.9 38.6 0.00 0.00 0.00 31 1018.0
20260506000054 8 352 24.1 38.6 0.00 0.00 0.00 32 1018.1
20260505234613 9 340 22.5 41.8 0.00 0.00 0.00 32 1018.1
20260505233055 8 352 29.0 37.0 0.00 0.00 0.00 33 1018.2
20260505231552 8 9 25.7 33.8 0.00 0.00 0.00 32 1018.2
20260505230056 9 329 27.4 41.8 0.00 0.00 0.00 29 1018.1
20260505224601 9 9 25.7 43.5 0.00 0.00 0.00 31 1018.1
20260505223103 9 5 25.7 40.2 0.00 0.00 0.00 29 1018.0
20260505221610 9 5 30.6 45.1 0.00 0.00 0.00 31 1018.1
20260505220138 9 352 22.5 46.7 0.00 0.00 0.00 32 1018.0
20260505214614 9 351 27.4 43.5 0.00 0.00 0.00 32 1018.1
20260505213053 9 5 25.7 41.8 0.00 0.00 0.00 32 1018.1
20260505211608 9 331 22.5 43.5 0.00 0.00 0.00 32 1018.2
20260505210054 9 332 27.4 43.5 0.00 0.00 0.00 32 1018.2
20260505204551 9 351 27.4 43.5 0.00 0.00 0.00 33 1018.4
20260505203054 9 352 30.6 49.9 0.00 0.00 0.00 33 1018.5
20260505201606 9 9 27.4 45.1 0.00 0.00 0.00 32 1018.4
20260505194602 9 349 20.9 45.1 0.00 0.00 0.00 35 1018.4
20260505193052 9 351 22.5 40.2 0.00 0.00 0.00 35 1018.4
20260505191554 8 321 20.9 40.2 0.00 0.00 0.00 37 1018.7
20260505190052 8 327 22.5 40.2 0.00 0.00 0.00 33 1018.5